Location: Buha
(46.1667°N, 22.7167°E)
Time: 08:16:28
(UTC+00:00)

Daily predictions for brighter satellites

Satellite Brightness Start Highest point End
(mag) Time Altitude Azimuth Time Altitude Azimuth Time Altitude Azimuth
Cosmos 1437 2.4 18:29:28 10° S 18:32:15 57° E 18:35:03 10° NNE
SJ-6B 3.4 18:28:32 10° S 18:32:26 62° W 18:36:28 10° NNW
USA 267 4.1 18:29:34 10° SSE 18:35:45 44° SW 18:42:00 10° WNW
ERS-2 3.1 18:32:14 10° N 18:35:47 51° WNW 18:39:18 10° SSW
Terra 4.0 18:36:07 10° ENE 18:37:24 11° NE 18:38:41 10° NE
Cosmos 2315 Rocket 4.1 18:32:04 10° S 18:38:25 73° E 18:44:47 10° NNE
Cosmos 1515 Rocket 4.0 18:38:28 10° SSE 18:42:36 42° E 18:46:44 10° NNE
Cosmos 1633 Rocket 3.3 18:41:21 10° NNW 18:45:46 76° W 18:50:10 10° S
Cosmos 773 Rocket 4.5 18:40:42 10° NNW 18:45:56 63° WSW 18:51:07 10° S
MOS 1-B Rocket 4.4 18:39:11 10° NNE 18:46:21 81° WNW 18:52:27 10° SSW
Cosmos 2082 Rocket 2.5 18:42:59 10° NNW 18:48:31 53° ENE 18:53:48 11° SE
Resurs 01 Rocket 1.7 18:44:38 10° SSE 18:49:01 63° ENE 18:53:26 10° N
Tianhe-1 2.4 18:48:30 10° SW 18:50:59 22° SSE 18:53:07 12° ESE
SPOT 1/Viking Rocket 4.2 18:47:15 10° SE 18:52:04 41° ENE 18:56:54 10° N
ERS-1 Rocket 4.5 18:49:40 10° ESE 18:53:28 22° ENE 18:57:17 10° NNE
Cosmos 1328 Rocket 3.6 18:49:13 10° S 18:53:38 84° W 18:58:04 10° N
EP 1 4.4 18:52:27 10° SSW 18:55:41 62° SE 18:58:22 10° NE
Cosmos 1943 Rocket 3.7 18:53:41 11° SE 18:56:53 17° E 19:00:24 10° ENE
USA 305 3.3 18:52:45 10° WNW 18:56:55 53° SW 19:00:36 13° SE
Cosmos 1538 Rocket 4.1 18:53:42 10° NNW 18:59:05 88° WSW 19:04:23 10° SSE
Spot 2 Rocket 4.3 18:55:08 12° SE 18:59:22 35° ENE 19:03:55 10° N
Cosmos 1470 Rocket 3.6 18:58:38 10° N 19:03:09 86° W 19:07:37 10° S
Landsat 7 3.8 19:01:57 10° SSE 19:06:42 75° ENE 19:11:28 10° N
SPOT 5 4.2 19:03:13 12° ESE 19:07:08 29° ENE 19:11:40 10° N
OBJECT-B 3.5 19:05:43 10° SW 19:08:04 18° W 19:10:26 10° NW
SPOT 3 Rocket 3.5 19:03:11 10° SSE 19:08:20 86° ENE 19:13:32 10° NNW
ERBS 4.0 19:06:23 10° NNW 19:09:14 26° NNE 19:12:05 10° E
CZ-2C R/B 3.9 19:05:22 10° NNE 19:09:48 52° E 19:14:17 10° S
COSMOS 2406 3.7 19:04:40 10° NNW 19:10:15 59° WSW 19:15:47 10° S
Cosmos 1536 4.0 19:07:13 10° NNE 19:10:42 27° ENE 19:13:01 16° ESE
Cosmos 2278 Rocket 2.5 19:07:15 10° SSW 19:12:54 73° WNW 19:18:36 10° NNE
Cosmos 1680 Rocket 4.1 19:08:10 10° N 19:13:16 44° ENE 19:17:11 16° SE
Cosmos 1271 Rocket 2.9 19:10:02 10° S 19:13:57 58° E 19:17:55 10° NNE
USA 306 3.8 19:12:33 10° WNW 19:16:31 39° SW 19:19:31 16° SSE
Cosmos 1933 Rocket 3.5 19:12:31 10° N 19:16:53 87° E 19:20:48 13° S
Cosmos 2369 Rocket 3.9 19:17:03 13° ESE 19:18:07 13° E 19:20:39 10° ENE
SJ 16-02 1.6 19:16:07 10° SSW 19:20:33 75° WNW 19:25:00 10° NNE
ISS -3.8 19:17:33 10° SW 19:20:52 63° SSE 19:24:13 10° ENE
Cosmos 2084 Rocket 4.3 19:17:09 10° NNW 19:21:12 42° NE 19:24:21 16° ESE
IGS 5A 3.9 19:21:27 10° S 19:25:29 60° W 19:29:37 10° NNW
Cosmos 1544 4.3 19:22:24 10° NNE 19:25:32 26° ENE 19:27:01 20° ESE
BREEZE-M R/B 3.2 19:26:23 10° WNW 19:28:43 35° N 19:31:10 10° ENE
NOSS 3-4 (A) 4.0 19:21:52 10° NW 19:28:53 73° SW 19:35:07 17° SSE
NOSS 3-4 (C) 4.0 19:21:59 10° NW 19:28:59 74° SW 19:35:13 17° SSE
Meteor 2-6 Rocket 4.3 19:25:19 10° SSW 19:30:45 77° WNW 19:36:23 10° N
Cosmos 1666 2.9 19:28:00 10° NNW 19:31:43 65° W 19:34:37 15° S
ARIANE 5 R/B 2.7 19:32:42 22° SSE 19:35:25 64° ENE 19:39:44 10° N
Iridium 4 Rocket 3.8 19:32:44 10° S 19:38:30 85° E 19:44:26 10° N
Cosmos 1812 4.0 19:34:54 10° SSW 19:38:33 40° WNW 19:42:13 10° N
Cosmos 1833 Rocket 4.0 19:36:28 10° NW 19:41:29 33° WSW 19:46:27 10° SSW
USA 245 2.0 19:41:15 46° S 19:41:45 71° WSW 19:44:09 10° NNW
ATLAS 2AS CENTAUR R/B 2.8 19:34:53 10° NW 19:42:19 86° NE 19:47:04 22° SE
Cosmos 990 Rocket 3.9 19:38:16 10° S 19:43:28 69° ESE 19:48:42 10° NNE
USA 307 4.4 19:41:36 10° WNW 19:45:08 25° SW 19:47:12 18° S
Cosmos 1898 Rocket 3.6 19:41:27 12° S 19:46:15 59° ESE 19:51:31 10° NNE
OAO 3 Rocket 4.5 19:43:29 10° SW 19:46:56 21° S 19:47:02 21° S
Meteor 1-27 Rocket 3.8 19:42:23 13° S 19:47:40 73° E 19:53:36 10° NNE
Cosmos 158 Rocket 4.5 19:44:58 10° NNW 19:49:41 50° WSW 19:53:13 18° S
CZ-4C R/B 4.2 19:43:20 10° NW 19:49:54 33° WSW 19:57:09 10° S
SL-24 R/B - RUBIN 2 3.9 19:45:01 10° NW 19:50:30 89° NE 19:53:10 28° SE
Milstar 3 4.4 19:37:37 10° WSW 19:50:46 32° S 19:55:45 21° SSE
Cosmos 923 Rocket 4.2 19:46:16 10° NNW 19:51:32 72° WSW 19:54:56 22° S
Cosmos 2154 Rocket 4.0 19:45:29 10° N 19:51:51 82° E 19:56:11 21° SSE
Cosmos 44 3.5 19:49:13 10° NW 19:54:40 85° SW 19:57:31 28° SSE
Cosmos 1818 3.7 19:49:33 10° NNW 19:55:03 68° NE 19:58:08 26° SE
Nadezhda 1 Rocket 3.9 19:50:59 14° S 19:56:35 83° E 20:02:48 10° N
Cosmos 2074 Rocket 4.4 19:50:49 10° NNW 19:57:03 63° W 20:02:25 14° S
Cosmos 2184 Rocket 4.3 19:52:07 10° NNW 19:58:15 64° W 20:03:21 15° S
Cosmos 1743 2.9 19:59:06 10° N 20:02:55 54° E 20:04:02 39° SE
Gbstr 26 Del rocket 4.1 20:04:05 10° WNW 20:11:49 88° SSW 20:15:50 26° ESE
Terra 1.8 20:12:16 34° SSE 20:14:18 75° ENE 20:19:05 10° N
H-2A R/B 3.5 20:10:43 10° NNE 20:14:50 56° E 20:15:56 42° SSE
Cosmos 967 Rocket 4.4 20:09:32 10° SSW 20:15:49 89° NW 20:22:08 10° NE
Cosmos 2297 3.7 20:11:56 10° SSW 20:17:39 85° WNW 20:23:21 10° NNE
Cosmos 1461 3.0 20:14:09 16° SSW 20:17:55 73° ESE 20:22:33 10° NE
Cosmos 1862 Rocket 3.9 20:20:42 40° ESE 20:21:28 45° E 20:25:36 10° NNE
Cosmos 2228 Rocket 4.3 20:19:04 11° SW 20:23:05 41° WNW 20:27:21 10° N
Cosmos 1340 Rocket 3.0 20:19:21 10° NNW 20:23:24 65° W 20:24:45 39° SSW
Cosmos 1607 4.5 20:22:36 31° SSE 20:24:40 40° ESE 20:30:38 10° NE
Okean 1 3.4 20:25:18 51° SE 20:25:56 58° E 20:29:51 10° NNE
Resurs 01 Rocket 4.2 20:23:30 10° WSW 20:25:56 14° W 20:28:22 10° NW
Tianhe-1 3.3 20:24:14 10° WSW 20:25:05 16° WSW 20:25:05 16° WSW
Cosmos 2366 rocket 4.2 20:25:38 10° N 20:31:44 56° ENE 20:34:18 34° SE
ERS-1 Rocket 3.4 20:29:27 28° SSW 20:31:53 54° W 20:36:50 10° NNW
BREEZE M DEB (TANK) 3.1 20:29:32 10° WNW 20:31:13 25° W 20:31:13 25° W
Cosmos 2082 Rocket 3.8 20:27:43 10° NW 20:32:14 25° WSW 20:35:40 15° SSW
ATLAS CENTAUR R/B 3.1 20:34:09 17° ENE 20:34:09 17° ENE 20:35:24 10° ENE
Cosmos 2181 Rocket 4.0 20:31:25 34° SSE 20:33:59 60° E 20:40:01 10° NNE
Cosmos 489 Rocket 4.4 20:29:45 10° NNW 20:36:03 82° ENE 20:38:46 36° SSE
Cosmos 1515 3.6 20:39:06 56° SSW 20:39:47 79° W 20:43:36 10° N
Cosmos 1943 Rocket 2.3 20:35:05 14° SSW 20:39:57 77° WNW 20:45:35 10° NNE
Cosmos 1937 Rocket 3.7 20:36:59 18° SSW 20:40:52 67° WNW 20:46:03 10° NNE
Cosmos 1707 Rocket 4.0 20:41:46 30° SW 20:43:45 56° WNW 20:48:08 10° N
SPOT 5 3.9 20:42:26 26° SSW 20:44:58 44° W 20:50:04 10° NNW
ERBS 3.0 20:42:17 10° WNW 20:44:57 43° W 20:44:57 43° W
Cosmos 1656 Rocket 3.9 20:48:48 42° SE 20:49:38 45° ESE 20:54:53 10° NE
Cosmos 1867 3.6 20:48:05 43° S 20:49:38 59° ESE 20:55:02 10° NE
Cosmos 2341 Rocket 4.2 20:48:23 10° NNW 20:54:44 67° W 20:57:43 33° SSW
Cosmos 1238 Rocket 3.6 20:51:44 10° NNW 20:57:30 69° W 20:59:04 43° SSW
ISS -2.2 20:54:39 10° W 20:57:50 37° NNW 21:01:01 10° ENE
Cosmos 1048 Rocket 4.2 20:55:52 10° NNW 21:01:07 60° ENE 21:02:32 44° ESE
Cosmos 2369 Rocket 2.1 20:58:46 36° SSW 21:01:13 86° ESE 21:06:55 10° NNE
Cosmos 2218 Rocket 4.0 20:55:03 10° N 21:01:24 88° W 21:03:51 41° S
Centaur D AC-29 4.2 20:23:15 10° WSW 21:03:22 30° SSW 21:05:49 28° S
Cosmos 1975 2.6 21:01:14 10° N 21:05:14 86° W 21:05:24 81° SSW
Meteor 1-18 Rocket 4.2 21:05:51 40° SSW 21:08:00 80° W 21:13:37 10° N
ALOS 2 3.7 21:10:20 31° E 21:11:00 32° ENE 21:14:56 10° N
Cosmos 1733 Rocket 3.9 21:07:29 10° NNW 21:11:32 40° W 21:12:25 35° WSW
Lacrosse 5 3.3 21:15:09 24° E 21:15:09 24° E 21:17:46 10° ENE
SL-8 Rocket 4.3 21:08:05 10° NNW 21:14:18 61° W 21:16:50 36° SSW
Nadezhda 3 Rocket 4.4 21:15:02 40° SE 21:16:33 47° E 21:22:27 10° NNE
RESURS DK-1 2.2 21:13:28 10° NNW 21:17:40 89° SSW 21:17:43 87° SSE
SL-27 R/B 3.2 21:16:52 10° NNW 21:19:32 46° NNE 21:19:32 46° NNE
Cosmos 1356 Rocket 4.3 21:17:17 10° N 21:21:21 40° ENE 21:21:35 39° E
Cosmos 2298 Rocket 3.9 21:29:27 57° SSW 21:30:35 88° ESE 21:35:55 10° NNE
Cosmos 1908 Rocket 3.6 21:27:07 10° NNW 21:31:35 68° W 21:31:53 65° SW
ATLAS 2AS CENTAUR R/B 4.2 21:27:10 10° WNW 21:32:17 21° WSW 21:34:30 18° SW
COSMOS 2455 4.4 21:28:48 10° NNW 21:34:01 29° NE 21:38:39 12° E
Sich 1 Rocket 4.4 21:34:34 10° N 21:38:52 40° ENE 21:39:11 40° E
Cosmos 2263 4.4 21:36:43 35° SW 21:39:12 69° WNW 21:45:00 10° NNE
Cosmos 494 Rocket 3.8 21:34:34 10° NNW 21:39:47 88° WSW 21:40:30 67° SSE
Cosmos 1805 4.4 21:39:53 10° N 21:43:12 35° ENE 21:43:12 35° ENE
Cosmos 2242 Rocket 3.7 21:44:02 62° WSW 21:44:25 65° W 21:48:54 10° N
Cosmos 1378 3.7 21:47:26 53° NNE 21:47:26 53° NNE 21:50:24 10° NNE
COBE Rocket 4.1 21:46:43 55° ESE 21:47:34 65° ENE 21:52:42 10° N
Okean 2 Rocket 4.0 21:46:28 10° N 21:50:34 36° ENE 21:50:47 36° E
Cosmos 2227 Rocket 4.5 21:46:42 10° N 21:50:37 19° NE 21:54:32 10° E
Terra 4.1 21:51:09 12° WSW 21:52:36 14° W 21:54:57 10° WNW
Meteor 2-4 Rocket 4.2 21:50:59 37° SW 21:52:54 53° WNW 21:58:21 10° N
Cosmos 2297 Rocket 4.1 21:48:34 10° N 21:53:05 23° NE 21:57:23 11° E
Cosmos 44 Rocket 3.2 21:50:24 10° NW 21:55:39 86° SW 21:56:13 72° SSE
NOSS 2-1 (C) 4.2 21:51:04 10° NW 21:55:57 77° NE 21:57:57 44° SE
Okean 1-7 3.4 21:56:31 51° W 21:56:44 52° WNW 22:00:57 10° N
Cosmos 2150 Rocket 4.4 21:56:17 43° WSW 21:57:50 61° WNW 22:03:05 10° NNE
Cosmos 1703 Rocket 4.2 22:00:16 45° W 22:00:41 46° WNW 22:04:59 10° N
Cosmos 1766 4.3 21:58:12 10° N 22:01:38 38° ENE 22:01:38 38° ENE
SAR-Lupe-2 4.4 21:58:34 10° NNE 22:01:16 48° NNE 22:01:16 48° NNE
NOSS 2-1 (D) 4.2 21:57:56 10° NW 22:02:51 85° NE 22:04:37 49° SE
Cosmos 1782 Rocket 3.9 21:59:44 10° NNW 22:04:03 55° W 22:04:03 55° W
Cosmos 1125 Rocket 3.7 22:04:18 49° WSW 22:05:29 65° WNW 22:10:42 10° NNE
Cosmos 1934 Rocket 3.9 22:01:22 10° N 22:07:29 74° E 22:08:56 53° SSE
ATLAS CENTAUR R/B 2.6 22:10:15 29° WNW 22:11:00 32° NW 22:14:29 10° NNE
COSMOS 2487 3.6 22:10:31 10° NNW 22:12:53 40° N 22:12:53 40° N
Cosmos 1821 Rocket 4.3 22:09:43 10° NNW 22:15:58 57° W 22:17:36 44° SW
Meteor 1-23 Rocket 4.2 22:21:04 60° S 22:22:09 81° E 22:27:59 10° NNE
Meteor 1-13 Rocket 4.5 22:22:22 46° WSW 22:23:37 58° WNW 22:29:04 10° N
Cosmos 1842 4.1 22:33:44 42° ENE 22:33:44 42° ENE 22:36:51 10° NNE
ISS -2.0 22:32:05 10° WNW 22:35:11 33° N 22:38:17 10° ENE
Resurs 1-4 Rocket 4.3 22:36:22 10° ENE 22:38:40 13° E 22:40:19 11° ESE
Cosmos 2221 Rocket 3.6 22:40:00 74° W 22:40:04 74° W 22:44:39 10° N
CZ-2D R/B 4.3 22:38:59 10° ENE 22:41:34 13° E 22:43:21 12° ESE
Cosmos 2219 4.2 22:37:01 10° NNW 22:42:27 42° NE 22:45:42 22° ESE
Okean 1 Rocket 3.6 22:39:46 10° N 22:44:02 49° ENE 22:44:17 48° E
Cosmos 1733 4.1 22:40:57 10° NNW 22:43:52 43° NW 22:43:52 43° NW
Cosmos 2369 Rocket 4.4 22:41:59 10° W 22:46:01 20° NW 22:50:07 10° N
Cosmos 1727 Rocket 4.4 22:44:17 42° SE 22:46:03 54° E 22:52:13 10° NNE
EO 1 Del DPAF 3.9 22:42:28 10° NNE 22:45:27 47° NE 22:45:27 47° NE
Cosmos 1400 Rocket 3.0 22:42:29 10° N 22:46:15 68° NE 22:46:15 68° NE
Cosmos 1674 Rocket 3.6 22:46:54 72° E 22:46:54 72° E 22:51:20 10° NNE
ALOS 2 4.0 22:47:43 27° W 22:47:43 27° W 22:51:06 10° NW
SeaSat 1 2.7 22:47:07 10° NE 22:51:58 53° ESE 22:52:11 53° SE
Cosmos 1758 4.5 22:49:38 10° N 22:53:25 35° ENE 22:53:46 34° E
Lacrosse 5 2.2 22:54:18 38° W 22:56:03 61° NW 23:01:07 10° NE
Cosmos 1315 Rocket 4.2 22:52:59 10° N 22:56:34 30° ENE 22:57:09 29° E
USA 81 3.9 22:51:20 10° N 22:56:38 77° W 22:57:21 65° SSW
Cosmos 1707 3.8 22:58:54 36° ENE 22:58:54 36° ENE 23:02:05 10° NNE
USA 281 4.2 22:55:41 10° ESE 23:01:41 42° NE 23:07:47 10° NNW
USA 276 4.2 23:03:50 24° NE 23:03:50 24° NE 23:05:19 10° ENE
Meteor 1-22 Rocket 4.4 22:57:38 10° NNW 23:03:40 71° W 23:05:03 53° SSW
Helios 1A 3.5 23:06:55 48° E 23:07:22 51° ENE 23:11:25 10° N
Cosmos 2251 Rocket 3.8 23:03:04 10° NNW 23:08:17 64° ENE 23:09:56 42° SE
USA 215 3.4 23:02:07 10° ESE 23:08:38 75° NNE 23:15:10 10° NW
SL-16 R/B 3.9 23:03:39 12° ESE 23:08:43 34° ENE 23:14:16 10° N
Cosmos 1697 Rocket 3.8 23:07:56 28° SE 23:08:59 30° ESE 23:13:48 10° NE
Cosmos 1459 Rocket 4.5 23:05:00 10° N 23:11:06 54° ENE 23:13:49 32° SE
Thor Agena Rocket 4.3 23:09:18 10° N 23:14:17 43° WNW 23:15:40 36° WSW
Cosmos 1455 Rocket 4.2 23:15:05 10° N 23:19:08 37° ENE 23:20:20 31° ESE
COSMOS 2455 2.8 23:14:27 10° NW 23:20:26 67° WSW 23:21:45 52° S
Okean 2 3.4 23:21:02 72° WNW 23:21:02 72° WNW 23:25:09 10° N
Cosmos 1726 2.5 23:17:37 10° N 23:20:43 60° NNW 23:20:43 60° NNW
Cosmos 1605 Rocket 4.4 23:16:08 10° NNW 23:22:08 49° W 23:23:41 41° SW
Cosmos 1980 Rocket 3.9 23:21:15 18° SE 23:23:03 21° E 23:27:08 10° NE
Cosmos 2173 Rocket 4.0 23:24:39 10° N 23:30:52 77° E 23:33:26 38° SSE
In-Cosmos 22 4.3 23:33:41 46° SSE 23:35:16 67° E 23:40:42 10° NNE
Cosmos 2227 Rocket 2.1 23:29:50 10° NNW 23:35:32 88° ENE 23:37:44 39° SSE
PSLV R/B 4.5 23:32:01 10° N 23:35:57 36° WNW 23:36:26 34° W
Cosmos 1674 3.5 23:36:47 41° ESE 23:36:59 41° E 23:40:37 10° NNE
Cosmos 2297 Rocket 2.1 23:32:01 10° NNW 23:37:41 71° WSW 23:39:09 49° S
Cosmos 1656 3.6 23:40:31 51° SW 23:41:58 81° WNW 23:47:33 10° NNE
Cosmos 1626 3.7 23:42:44 25° ESE 23:43:19 26° E 23:46:25 10° NNE
Meteor 2-20 Rocket 4.5 23:41:49 44° SSW 23:43:49 71° W 23:50:00 10° N
Cosmos 2061 Rocket 4.3 23:41:05 10° N 23:47:25 66° ENE 23:51:07 26° SSE
Timation 2 Rocket 3.8 23:41:41 10° NNW 23:47:39 72° WSW 23:49:55 40° S
Cosmos 1953 2.5 23:45:53 10° N 23:49:52 65° E 23:50:30 54° SE
Cosmos 2369 4.3 23:48:09 35° SSE 23:50:01 48° ESE 23:55:30 10° NE
Cosmos 407 Rocket 3.9 23:45:41 10° NNW 23:51:01 61° ENE 23:54:29 22° SE
TSX-5 3.7 23:48:23 10° NNW 23:51:39 69° W 23:51:39 69° W
Cosmos 2082 4.0 23:47:26 10° NNW 23:53:08 66° ENE 23:57:39 16° SE
Cosmos 1975 Rocket 2.9 23:54:16 65° SSW 23:54:53 87° W 23:59:15 10° N
